Simultaneous Nadir Overpasses (SNOs) Predictions

Prediction of SNOs between METOP-B and NOAA-19 Satellite Orbit:

Table of predicted SNOs for the next 14.0 days since TLE Epoch: 7/27/2013
Index Date (METOP-B) Time (METOP-B) Lat,Lon (METOP-B) SZA (METOP-B ) Date (NOAA-19) Time (NOAA-19) Lat,Lon (NOAA-19) SZA (NOAA-19 ) Distance(km) Time Diff (sec)
1 08/03/2013 05:42:36 73.73, 88.73 56.33 08/03/2013 05:41:25 73.75, 87.29 56.43 44.76 71
2 08/03/2013 06:33:25 -73.41,-104.69 123.95 08/03/2013 06:32:23 -73.41,-104.67 123.94 0.61 62
3 08/03/2013 07:24:04 73.40, 62.65 56.06 08/03/2013 07:23:22 73.38, 62.65 56.04 2.62 42
4 08/03/2013 08:14:47 -73.38,-130.08 123.95 08/03/2013 08:14:27 -73.39,-130.14 123.95 1.90 20
5 08/03/2013 09:05:27 73.33, 37.14 56.01 08/03/2013 09:05:26 73.36, 37.18 56.04 3.23 1
6 08/03/2013 09:56:10 -73.31,-155.58 124.00 08/03/2013 09:56:30 -73.31,-155.49 124.00 2.86 20
7 08/03/2013 10:46:49 73.31, 11.75 56.01 08/03/2013 10:47:29 73.29, 11.83 55.98 3.34 40
8 08/03/2013 11:37:32 -73.29, 179.03 124.00 08/03/2013 11:38:34 -73.29, 179.04 124.01 0.63 62
9 08/03/2013 12:28:17 72.98, -14.30 55.74 08/03/2013 12:29:28 73.02, -13.09 55.70 39.54 71




NCC Satellite Simultaneous Nadir Overpasses (SNOs) Prediction Service
